Starlink 35253

operational
NORAD ID: 65596 Int'l Des: 2025-207 Owner: SPXS Country: US Constellation: starlink
NOTLE

About Starlink 35253

Description loading...

Live Position

Loading 3D Globe...

Upcoming Passes

Altitude History

Altitude vs Time

uPlot chart will show altitude changes over time

Two-Line Element Set

1 65596U 25207E 25308.18430042 .00038339 00000-0 97913-3 0 9995
2 65596 97.6039 12.4223 0002088 85.8865 274.2619 15.39378926 9002
Epoch: Nov 4, 2025 • Age: 19 hours

Current Status

Altitude 458.6 km
Velocity 7.64 km/s
Sub-Earth Point 69.79°N, 175.71°E
Launch Date Sep 13, 2025
Age 0.1 years
Type internet

Technical Details

Classification Payload
Mass 575.00 kg
Dry Mass 530.00 kg
Total Mass 575.00 kg
Length 0.30 m
Diameter 4.10 m
Span 29.00 m
Shape Box + pan
Manufacturer SPXS
Bus Type Starlink V2MO
Phase Status In Orbit
Owner/State SPXS/US

Large Constellations

Loading constellations...